CW4525 Weather Reports


time (UTC)temp
F
wind
direction
speed
knots
gust
knots
rain 1hr
in
rain 24hr
in
rain mn
in
humidity
%
barometer
mb
20240222113024 23 174 0.9 5.2 0.00 0.00 0.00 90 1016.4
20240222111514 23 119 3.5 7.8 0.00 0.00 0.00 91 1016.3
20240222110020 23 120 5.2 7.8 0.00 0.00 0.00 91 1016.7
20240222104547 23 132 5.2 7.8 0.00 0.00 0.00 90 1017.1
20240222103009 22 118 4.3 7.0 0.00 0.00 0.00 90 1017.4
20240222101507 22 119 3.5 6.1 0.00 0.00 0.00 90 1017.3
20240222100011 22 111 3.5 6.1 0.00 0.00 0.00 90 1017.2
20240222094511 22 114 1.7 4.3 0.00 0.00 0.00 90 1017.5
20240222093006 23 69 1.7 5.2 0.00 0.00 0.00 89 1017.6
20240222091503 23 126 2.6 5.2 0.00 0.00 0.00 89 1017.7
20240222090002 23 134 3.5 5.2 0.00 0.00 0.00 89 1017.9
20240222084502 23 125 4.3 6.1 0.00 0.00 0.00 89 1018.2
20240222083108 23 115 5.2 7.0 0.00 0.00 0.00 89 1018.3
20240222081556 23 113 4.3 7.0 0.00 0.00 0.00 88 1018.7
20240222080055 23 69 1.7 4.3 0.00 0.00 0.00 88 1018.9
20240222074600 23 128 1.7 4.3 0.00 0.00 0.00 87 1019.3
20240222073101 24 252 0.0 0.9 0.00 0.00 0.00 86 1019.4
20240222071554 24 252 0.0 5.2 0.00 0.00 0.00 87 1019.5
20240222070048 24 146 2.6 5.2 0.00 0.00 0.00 86 1019.8
20240222064547 25 108 2.6 5.2 0.00 0.00 0.00 86 1019.9
20240222063047 24 131 4.3 7.0 0.00 0.00 0.00 86 1020.3
20240222061543 24 142 2.6 5.2 0.00 0.00 0.00 86 1020.5
20240222060041 25 138 0.9 1.7 0.00 0.00 0.00 85 1020.7
20240222054539 25 138 0.0 3.5 0.00 0.00 0.00 84 1020.8
20240222053038 25 138 0.9 3.5 0.00 0.00 0.00 84 1021.0
20240222051555 25 121 0.9 3.5 0.00 0.00 0.00 84 1021.4
20240222050049 25 161 2.6 7.0 0.00 0.00 0.00 84 1021.5
20240222044531 25 147 0.0 3.5 0.00 0.00 0.00 83 1021.6
20240222043026 26 131 2.6 5.2 0.00 0.00 0.00 83 1021.6
20240222041521 26 130 2.6 6.1 0.00 0.00 0.00 82 1021.7
20240222040017 26 113 4.3 7.8 0.00 0.00 0.00 82 1022.1
20240222034513 26 140 4.3 7.8 0.00 0.00 0.00 82 1022.4
20240222033015 27 143 4.3 7.0 0.00 0.00 0.00 82 1022.6
20240222031503 27 134 3.5 7.8 0.00 0.00 0.00 82 1022.8
20240222030101 27 128 3.5 7.8 0.00 0.00 0.00 82 1023.0
20240222024556 27 130 4.3 7.0 0.00 0.00 0.00 82 1023.1
20240222023103 27 117 3.5 7.0 0.00 0.00 0.00 81 1023.2
20240222021551 27 138 2.6 5.2 0.00 0.00 0.00 80 1023.4
20240222020042 27 111 0.9 7.8 0.00 0.00 0.00 80 1023.4
20240222014539 28 132 3.5 7.8 0.00 0.00 0.00 79 1023.4
20240222013036 28 117 5.2 8.7 0.00 0.00 0.00 78 1023.6
20240222011536 28 155 6.1 10.4 0.00 0.00 0.00 78 1023.7
20240222010027 29 136 7.0 10.4 0.00 0.00 0.00 77 1023.8
20240222004521 29 139 5.2 11.3 0.00 0.00 0.00 76 1023.9
20240222003016 29 126 5.2 10.4 0.00 0.00 0.00 74 1024.2
20240222001512 30 176 6.1 12.2 0.00 0.00 0.00 72 1024.2
20240222000009 30 121 6.1 11.3 0.00 0.00 0.00 71 1024.2
20240221234505 31 117 6.1 12.2 0.00 0.00 0.00 69 1024.2
20240221233103 31 146 7.0 9.6 0.00 0.00 0.00 66 1024.2
20240221233002 31 100 6.1 9.6 0.00 0.00 0.00 66 1024.2
20240221231558 32 107 4.3 10.4 0.00 0.00 0.00 65 1024.2
20240221230052 33 130 5.2 13.0 0.00 0.00 0.00 61 1024.2
20240221224548 34 96 3.5 6.1 0.00 0.00 0.00 57 1024.2
20240221223047 35 127 2.6 7.8 0.00 0.00 0.00 55 1024.2
20240221221541 36 86 4.3 8.7 0.00 0.00 0.00 53 1024.2
20240221220041 36 79 5.2 10.4 0.00 0.00 0.00 51 1024.2
20240221214537 37 111 2.6 9.6 0.00 0.00 0.00 48 1024.3
20240221213033 38 116 3.5 7.0 0.00 0.00 0.00 46 1024.4
20240221211530 39 142 6.1 11.3 0.00 0.00 0.00 46 1024.5
20240221210025 40 156 4.3 11.3 0.00 0.00 0.00 44 1024.5
20240221204621 40 138 4.3 8.7 0.00 0.00 0.00 44 1024.6
20240221203018 41 184 6.1 8.7 0.00 0.00 0.00 43 1024.6
20240221201513 41 198 3.5 9.6 0.00 0.00 0.00 42 1024.7
20240221200008 41 159 5.2 7.8 0.00 0.00 0.00 43 1024.7
20240221194503 41 136 4.3 8.7 0.00 0.00 0.00 43 1024.9
20240221193100 41 146 1.7 9.6 0.00 0.00 0.00 45 1025.3
20240221191555 41 115 2.6 7.8 0.00 0.00 0.00 48 1025.4
20240221190054 41 97 4.3 8.7 0.00 0.00 0.00 48 1025.8
20240221184549 40 166 3.5 7.8 0.00 0.00 0.00 47 1026.1
20240221183045 41 103 6.1 8.7 0.00 0.00 0.00 47 1026.4
20240221181545 40 103 5.2 9.6 0.00 0.00 0.00 48 1026.8
20240221180031 39 142 3.5 9.6 0.00 0.00 0.00 49 1027.1
20240221174528 39 90 3.5 11.3 0.00 0.00 0.00 52 1027.5
20240221173032 38 205 4.3 8.7 0.00 0.00 0.00 52 1027.9
20240221171534 37 30 4.3 7.8 0.00 0.00 0.00 55 1028.4
20240221170021 37 91 3.5 7.8 0.00 0.00 0.00 54 1028.7
20240221164519 37 40 3.5 8.7 0.00 0.00 0.00 56 1029.1
20240221163016 36 121 4.3 12.2 0.00 0.00 0.00 58 1029.5
20240221161514 35 179 4.3 12.2 0.00 0.00 0.00 59 1029.7
20240221160014 34 101 2.6 7.8 0.00 0.00 0.00 62 1030.0
20240221154509 33 151 2.6 8.7 0.00 0.00 0.00 66 1030.2
20240221153001 31 84 4.3 7.8 0.00 0.00 0.00 68 1030.2
20240221151558 29 332 0.0 4.3 0.00 0.00 0.00 71 1030.4
20240221150052 27 317 2.6 5.2 0.00 0.00 0.00 76 1030.7
20240221144548 25 329 0.9 4.3 0.00 0.00 0.00 77 1030.8
20240221143044 23 323 1.7 4.3 0.00 0.00 0.00 79 1030.8
20240221141549 23 331 1.7 4.3 0.00 0.00 0.00 79 1030.8
20240221140042 21 324 0.0 0.0 0.00 0.00 0.00 82 1031.0
20240221134541 20 337 0.0 0.0 0.00 0.00 0.00 85 1031.0
20240221133040 18 338 0.0 0.0 0.00 0.00 0.00 86 1031.0
20240221131537 17 338 0.0 0.0 0.00 0.00 0.00 87 1031.1
20240221130040 16 342 0.0 0.0 0.00 0.00 0.00 87 1031.0
20240221124536 16 342 0.0 0.0 0.00 0.00 0.00 87 1031.0
20240221123056 16 342 0.0 0.0 0.00 0.00 0.00 87 1030.9
20240221121531 16 342 0.0 0.0 0.00 0.00 0.00 87 1030.6
20240221120033 15 342 0.0 0.9 0.00 0.00 0.00 86 1030.5
20240221114530 15 342 0.0 0.0 0.00 0.00 0.00 86 1030.5